Western Neb. Rgnl/William B. Heilig Airport
KBFF : now visible

Airfield :











YOU CAN JOIN US ON...

 
LOGIN :

Register | Disclaimer

   EN    FR    IT 

 









Legend :    VFR   Marginal VFR   IFR   Intensive IFR   Very Intensive IFR
Visi :
Ceiling :
>= 8 km
>= 3000ft
5 to 8 km
1000 to 3000 ft
1500m to 5 km
500 to 1000 ft
800 to 1500m
200 to 500 ft
< 800m
< 200 ft
Symbols :   Thunderstorms  Fog  Heavy snow  Heavy precipitations  Wind > 20 kt






- Airport Elevation : 3967 ft
- IATA code : BFF


KBFF - Western Neb. Rgnl/William B. Heilig

CURRENT METAR :
  • 270053Z AUTO 10008KT 10SM CLR 32/16 A2999 RMK AO2 SLP106 T03170156

EXPIRED METARs :
  • 262353Z AUTO 09009KT 10SM CLR 34/16 A2999 RMK AO2 SLP105 T03390156 10367 20317 55005
  • 262253Z AUTO 10009KT 10SM CLR 36/14 A2999 RMK AO2 SLP102 T03560144

TAF KBFF
Valid from the 27 at 00:00 until the 28 at 00:00 UTC


262335Z 2700/2724 12007KT P6SM SKC
KZDV FIR / North America



MET'MAP, your aeronautical weather chart ! - Copyright ORBIFLY December 2007 - Disclaimer

ORBIFLY MET'MAP TEAM :

Programming & Development : Alexandra Zaïnal
Concept & original design : Baudouin d'Aumeries
Assistance for programming : Marc-Olivier Méhu
Technical & hardware support : Manuel Goepfert

Contact : metmap@orbifly.com




SOURCES & CREDITS :

   NOAA       Earth
Advisory